GW5556 Weather Reports


time (UTC)temp
C
wind
direction
speed
KPH
gust
KPH
rain 1hr
cm
rain 24hr
cm
rain mn
cm
humidity
%
barometer
mb
20260510211508 27 193 6.4 19.3 0.00 0.00 0.00 20 1012.7
20260510210008 27 216 4.8 17.7 0.00 0.00 0.00 21 1012.6
20260510204503 27 254 4.8 14.5 0.00 0.00 0.00 25 1012.7
20260510203030 27 202 3.2 11.3 0.00 0.00 0.00 21 1012.8
20260510201519 27 284 3.2 12.9 0.00 0.00 0.00 21 1012.9
20260510200014 27 211 8.0 12.9 0.00 0.00 0.00 22 1012.9
20260510194511 26 140 3.2 16.1 0.00 0.00 0.00 24 1013.1
20260510193008 26 221 3.2 19.3 0.00 0.00 0.00 25 1013.3
20260510191521 27 191 6.4 24.1 0.00 0.00 0.00 24 1013.3
20260510190029 27 244 8.0 19.3 0.00 0.00 0.00 23 1013.2
20260510184511 27 284 3.2 19.3 0.00 0.00 0.00 23 1013.3
20260510183016 26 281 9.7 17.7 0.00 0.00 0.00 21 1013.4
20260510181523 26 161 8.0 17.7 0.00 0.00 0.00 23 1013.4
20260510180012 26 28 3.2 11.3 0.00 0.00 0.00 22 1013.5
20260510174524 26 175 4.8 17.7 0.00 0.00 0.00 21 1013.6
20260510173005 26 186 4.8 16.1 0.00 0.00 0.00 19 1013.7
20260510171518 26 173 8.0 14.5 0.00 0.00 0.00 20 1013.8
20260510170009 25 222 4.8 14.5 0.00 0.00 0.00 19 1014.1
20260510164504 25 306 4.8 24.1 0.00 0.00 0.00 21 1014.2
20260510163017 25 314 3.2 17.7 0.00 0.00 0.00 22 1014.3
20260510161510 25 242 4.8 14.5 0.00 0.00 0.00 23 1014.3
20260510160017 25 196 1.6 17.7 0.00 0.00 0.00 25 1014.3
20260510154508 25 183 8.0 12.9 0.00 0.00 0.00 22 1014.4
20260510153009 24 233 3.2 17.7 0.00 0.00 0.00 25 1014.6
20260510151512 23 313 3.2 12.9 0.00 0.00 0.00 28 1014.7
20260510150015 23 335 6.4 17.7 0.00 0.00 0.00 28 1014.7
20260510144519 23 185 1.6 8.0 0.00 0.00 0.00 39 1014.6
20260510143014 22 72 3.2 9.7 0.00 0.00 0.00 39 1014.7
20260510141522 22 136 4.8 8.0 0.00 0.00 0.00 44 1014.7
20260510140016 21 146 0.0 9.7 0.00 0.00 0.00 49 1014.8
20260510134508 20 169 0.0 6.4 0.00 0.00 0.00 49 1014.9
20260510133018 20 167 3.2 6.4 0.00 0.00 0.00 51 1014.8
20260510131514 18 167 0.0 6.4 0.00 0.00 0.00 56 1014.7
20260510130012 17 175 1.6 6.4 0.00 0.00 0.00 61 1014.7
20260510124516 16 209 0.0 4.8 0.00 0.00 0.00 67 1014.5
20260510123020 14 311 1.6 9.7 0.00 0.00 0.00 68 1014.4
20260510121518 12 134 0.0 8.0 0.00 0.00 0.00 75 1014.2
20260510120020 11 218 1.6 6.4 0.00 0.00 0.00 75 1013.9
20260510114515 10 300 1.6 6.4 0.00 0.00 0.00 76 1013.8
20260510113014 10 293 0.0 8.0 0.00 0.00 0.00 76 1013.5
20260510111525 8 300 0.0 3.2 0.00 0.00 0.00 74 1013.2
20260510110016 8 300 1.6 6.4 0.00 0.00 0.00 73 1013.0
20260510104532 8 268 0.0 6.4 0.00 0.00 0.00 73 1012.9
20260510103019 8 303 0.0 6.4 0.00 0.00 0.00 73 1012.7
20260510101516 8 311 0.0 4.8 0.00 0.00 0.00 72 1012.4
20260510100024 8 302 0.0 3.2 0.00 0.00 0.00 71 1012.1
20260510094538 9 302 0.0 1.6 0.00 0.00 0.00 69 1012.1
20260510093021 10 304 0.0 8.0 0.00 0.00 0.00 71 1012.1
20260510091519 10 301 0.0 6.4 0.00 0.00 0.00 70 1011.9
20260510090016 10 298 0.0 4.8 0.00 0.00 0.00 68 1011.7
20260510084521 10 298 3.2 6.4 0.00 0.00 0.00 73 1011.5
20260510083010 10 302 0.0 3.2 0.00 0.00 0.00 70 1011.3
20260510081528 10 302 0.0 3.2 0.00 0.00 0.00 72 1011.1
20260510080006 10 304 0.0 4.8 0.00 0.00 0.00 67 1011.0
20260510074505 11 304 0.0 0.0 0.00 0.00 0.00 69 1010.9
20260510073003 11 304 0.0 0.0 0.00 0.00 0.00 69 1010.8
20260510071509 11 304 0.0 3.2 0.00 0.00 0.00 67 1010.8
20260510070011 12 314 0.0 9.7 0.00 0.00 0.00 69 1010.9
20260510064507 12 188 0.0 3.2 0.00 0.00 0.00 68 1011.0
20260510063016 11 188 0.0 1.6 0.00 0.00 0.00 68 1011.1
20260510061506 11 188 0.0 0.0 0.00 0.00 0.00 65 1011.1
20260510060006 12 188 0.0 4.8 0.00 0.00 0.00 67 1011.2
20260510054518 12 188 0.0 0.0 0.00 0.00 0.00 66 1011.2
20260510053016 12 188 0.0 4.8 0.00 0.00 0.00 64 1011.3
20260510051529 13 188 1.6 4.8 0.00 0.00 0.00 66 1011.4
20260510050018 13 188 0.0 0.0 0.00 0.00 0.00 65 1011.4
20260510044519 13 188 0.0 0.0 0.00 0.00 0.00 64 1011.3
20260510043023 13 188 0.0 1.6 0.00 0.00 0.00 63 1011.4
20260510041520 15 188 0.0 0.0 0.00 0.00 0.00 64 1011.4
20260510040021 15 188 0.0 3.2 0.00 0.00 0.00 66 1011.4
20260510034520 15 188 0.0 3.2 0.00 0.00 0.00 64 1011.5
20260510033023 15 188 1.6 4.8 0.00 0.00 0.00 66 1011.3
20260510031524 15 188 0.0 3.2 0.00 0.00 0.00 65 1011.3
20260510030026 15 188 0.0 4.8 0.00 0.00 0.00 66 1011.4
20260510024522 15 188 0.0 3.2 0.00 0.00 0.00 66 1011.2
20260510023005 15 188 0.0 1.6 0.00 0.00 0.00 65 1011.1
20260510021511 16 188 0.0 3.2 0.00 0.00 0.00 65 1011.1
20260510020003 16 188 0.0 3.2 0.00 0.00 0.00 65 1010.8
20260510014503 16 188 0.0 0.0 0.00 0.00 0.00 63 1010.6
20260510013010 16 188 0.0 0.0 0.00 0.00 0.00 62 1010.2
20260510011508 17 188 0.0 0.0 0.00 0.00 0.00 61 1010.0
20260510010005 17 188 0.0 1.6 0.00 0.00 0.00 60 1009.7
20260510004503 18 188 0.0 1.6 0.00 0.00 0.00 58 1009.4
20260510003003 18 188 0.0 3.2 0.00 0.00 0.00 56 1009.2
20260510001509 20 181 1.6 4.8 0.00 0.00 0.00 54 1009.1
20260510000020 20 180 0.0 0.0 0.00 0.00 0.00 52 1009.0
20260509234507 21 174 0.0 3.2 0.00 0.00 0.00 50 1009.0
20260509233007 21 174 1.6 6.4 0.00 0.00 0.00 48 1008.9
20260509231507 22 212 1.6 11.3 0.00 0.00 0.00 45 1008.6
20260509230010 22 213 1.6 9.7 0.00 0.00 0.00 43 1008.3
20260509224517 23 173 3.2 6.4 0.00 0.00 0.00 41 1008.3
20260509223005 23 223 1.6 6.4 0.00 0.00 0.00 40 1008.2
20260509221509 23 236 1.6 6.4 0.00 0.00 0.00 41 1008.3
20260509220008 22 207 1.6 8.0 0.00 0.00 0.00 42 1008.4
20260509214506 22 261 1.6 3.2 0.00 0.00 0.00 42 1008.2
20260509213016 22 233 1.6 4.8 0.00 0.00 0.00 41 1008.1